Cloud_Cover
100 100 100 82 100 97 100 100 100 100 100 100 91 56 48 13 5 5 5 15 5 5 12 5 4 5 5 5 19 15 13 33
100 100 100 100 100 100 100 100 100 100 100 67 73 64 13 6 12 5 95 100 98 8 47 66 9 0 3 5 8 34 56 42
100 100 100 100 100 72 100 97 100 95 100 40 55 67 39 26 97 32 33 82 31 5 34 93 74 2 0 3 0 1 1 0
100 100 100 98 100 98 93 67 48 100 100 40 34 40 79 91 36 5 61 44 6 5 20 17 5 5 5 0 0 1 2 4
100 100 100 100 100 100 99 41 80 78 24 71 88 30 60 76 78 98 57 95 91 20 6 5 5 5 0 0 0 1 0 0
100 100 100 100 100 100 100 98 100 100 100 100 100 100 100 100 98 92 100 97 76 14 5 5 5 5 4 0 4 0 3 5
100 100 100 100 100 100 100 100 100 100 100 100 100 100 100 100 100 100 100 54 68 83 28 7 10 19 10 5 3 5 5 5
100 100 100 100 100 100 100 100 100 100 100 100 100 100 100 100 100 100 100 64 97 99 84 5 5 11 13 5 6 16 5 12
39 100 100 100 100 100 100 100 100 100 100 100 100 100 100 100 100 100 100 51 100 100 100 100 74 62 92 78 100 100 100 73
0 0 89 100 100 100 100 100 100 100 100 100 100 100 100 100 100 39 27 8 100 95 99 99 92 99 100 100 100 100 97 96
3 1 1 12 84 100 100 100 100 100 100 100 100 100 100 100 100 100 96 5 7 48 6 7 34 100 100 100 100 100 99 91
22 88 70 70 7 14 100 100 100 100 100 100 100 100 100 100 100 100 77 32 19 34 45 45 66 6 85 97 81 51 21 14
0 5 5 75 88 47 100 100 100 100 100 100 100 100 100 100 100 100 100 99 33 100 100 70 40 73 52 99 41 5 5 92
0 0 0 5 14 45 63 91 100 97 100 100 100 100 100 100 100 100 100 100 100 68 60 90 80 32 63 83 22 28 2 54
0 0 0 2 40 30 50 82 100 100 100 100 100 100 100 100 100 100 100 100 100 99 77 96 87 79 82 69 76 4 0 0
0 0 0 0 9 22 6 11 49 58 99 100 100 100 100 100 100 93 100 99 91 99 99 75 92 5 5 71 97 68 5 4
0 0 0 0 0 0 0 0 0 4 100 100 100 100 100 100 100 88 46 92 100 100 100 48 94 27 41 65 33 6 5 5
0 0 0 0 0 0 0 0 0 24 97 100 100 100 100 100 100 100 59 28 39 85 79 66 44 100 100 84 36 85 66 84
0 0 0 0 0 0 0 0 0 4 100 100 100 100 100 100 100 100 100 100 100 65 75 100 100 100 100 100 100 98 85 50